Weather History for KLTS - May, 2012

Change the Weather History Date:

Saturday, May 5, 2012

  Actual Average Record
Temperature  
Mean Temperature 84 °F -  
Max Temperature 104 °F 79 °F 104 °F (2012)
Min Temperature 63 °F 55 °F 41 °F (2013)
Cooling Degree Days 18    
Growing Degree Days 34 (Base 50)    
Moisture  
Dew Point 55 °F    
Average Humidity 48    
Maximum Humidity 89    
Minimum Humidity 7    
Precipitation  
Precipitation 0.00 in - - ()
Sea Level Pressure  
Sea Level Pressure 29.69 in    
Wind  
Wind Speed 13 mph (SSE)    
Max Wind Speed 21 mph    
Max Gust Speed 30 mph    
Visibility 10 miles    
Events      
Averages and records for this station are not official NWS values.
T = Trace of Precipitation, MM = Missing Value Source: NWS Daily Summary

Daily Weather History Graph

Daily Weather History Graph

Search for Another Location

Airport or City:

Trip Planner

Search our weather history database for the weather conditions in past years. The results will help you decide how hot, cold, wet, or windy it might be!

Date:

Astronomy

May. 05, 2012 Rise Set
Actual Time 6:42 AM CDT 8:25 PM CDT
Civil Twilight 6:15 AM CDT 8:52 PM CDT
Nautical Twilight 5:42 AM CDT 9:25 PM CDT
Astronomical Twilight 5:07 AM CDT 10:00 PM CDT
Moon 8:18 PM CDT (5/5) 6:05 AM CDT (5/5)
Length of Visible Light 14h 37m
Length of Day
13h 43m
Full, 100% of the Moon is Illuminated
May 5
Full
May 5
Full
May 12
Last Quarter
May 20
New
May 28
First Quarter

Hourly Weather History & Observations

Time (CDT) Temp. Heat Index Dew Point Humidity Pressure Visibility Wind Dir Wind Speed Gust Speed Precip Events Conditions
12:55 AM 73.6 °F - 59.5 °F 61% 29.78 in 10.0 mi SSE 16.1 mph - N/A   Clear
1:55 AM 72.1 °F - 59.2 °F 64% 29.77 in 10.0 mi SSE 11.5 mph - N/A   Clear
2:55 AM 69.8 °F - 58.5 °F 67% 29.75 in 10.0 mi ESE 6.9 mph - N/A   Clear
3:55 AM 67.5 °F - 57.9 °F 71% 29.75 in 10.0 mi SE 6.9 mph - N/A   Clear
4:55 AM 68.0 °F - 59.9 °F 75% 29.75 in 10.0 mi SSE 11.5 mph - N/A   Clear
5:55 AM 66.4 °F - 60.4 °F 81% 29.74 in 10.0 mi SSE 8.1 mph - N/A   Clear
6:55 AM 63.9 °F - 60.6 °F 89% 29.74 in 10.0 mi SE 6.9 mph - N/A   Clear
7:55 AM 68.5 °F - 63.7 °F 84% 29.76 in 10.0 mi SSE 9.2 mph - N/A   Clear
8:55 AM 76.5 °F - 67.1 °F 73% 29.76 in 10.0 mi South 15.0 mph - N/A   Clear
9:55 AM 83.1 °F 86.1 °F 67.8 °F 60% 29.76 in 10.0 mi SW 18.4 mph 26.5 mph N/A   Clear
10:55 AM 88.9 °F 91.0 °F 65.5 °F 46% 29.73 in 10.0 mi SW 19.6 mph 25.3 mph N/A   Clear
11:55 AM 93.4 °F 93.5 °F 61.5 °F 34% 29.73 in 10.0 mi SSW 12.7 mph 19.6 mph N/A   Clear
12:55 PM 97.3 °F 97.0 °F 59.5 °F 28% 29.70 in 10.0 mi SSW 9.2 mph 17.3 mph N/A   Clear
1:55 PM 100.8 °F - 51.4 °F 19% 29.67 in 10.0 mi SSW 15.0 mph 21.9 mph N/A   Clear
2:55 PM 104.0 °F - 36.9 °F 10% 29.65 in 10.0 mi SSW 15.0 mph 21.9 mph N/A   Clear
3:55 PM 104.2 °F - 35.4 °F 9% 29.63 in 10.0 mi SSW 11.5 mph 23.0 mph N/A   Clear
4:55 PM 104.4 °F - 34.3 °F 9% 29.61 in 10.0 mi SW 15.0 mph - N/A   Clear
5:55 PM 103.3 °F - 32.5 °F 9% 29.60 in 10.0 mi South 13.8 mph - N/A   Clear
6:55 PM 102.6 °F - 28.0 °F 7% 29.59 in 10.0 mi SSW 9.2 mph - N/A   Clear
7:55 PM 97.0 °F - 27.1 °F 8% 29.59 in 10.0 mi ESE 18.4 mph 27.6 mph N/A   Clear
8:55 PM 88.7 °F 93.0 °F 69.3 °F 52% 29.61 in 10.0 mi ESE 18.4 mph 29.9 mph N/A   Clear
9:55 PM 85.6 °F 90.4 °F 70.5 °F 60% 29.64 in 10.0 mi SE 20.7 mph 28.8 mph N/A   Clear
10:55 PM 83.8 °F 88.6 °F 70.9 °F 65% 29.67 in 10.0 mi SE 18.4 mph 28.8 mph N/A   Clear
11:55 PM 81.9 °F 85.6 °F 70.0 °F 67% 29.68 in 10.0 mi SE 15.0 mph - N/A   Clear